Phuket, Thailand

7:04 PM +07 on August 18, 2017 (GMT +0700)
Phuket International

Weather History for VTSP - January, 2013

Change the Weather History Date:

Tuesday, January 22, 2013

  Actual Average Record
Temperature  
Mean Temperature 82 °F -  
Max Temperature 90 °F 90 °F 102 °F (1998)
Min Temperature 75 °F 75 °F 69 °F (2011)
Cooling Degree Days 18    
Growing Degree Days 32 (Base 50)    
Moisture  
Dew Point 73 °F    
Average Humidity 74    
Maximum Humidity 94    
Minimum Humidity 50    
Precipitation  
Precipitation 0.20 in 0.04 in - ()
Sea Level Pressure  
Sea Level Pressure 29.89 in    
Wind  
Wind Speed 5 mph ()    
Max Wind Speed 15 mph    
Max Gust Speed -    
Visibility 5.4 miles    
Events Rain    
Averages and records for this station are not official NWS values.
T = Trace of Precipitation, MM = Missing Value Source: Averaged Metar Reports

Daily Weather History Graph

Daily Weather History Graph

Search for Another Location

Airport or City:

Trip Planner

Search our weather history database for the weather conditions in past years. The results will help you decide how hot, cold, wet, or windy it might be!

Date:

Astronomy

Jan. 22, 2013 Rise Set
Actual Time 6:46 AM +07 6:30 PM +07
Civil Twilight 6:24 AM +07 6:52 PM +07
Nautical Twilight 5:58 AM +07 7:18 PM +07
Astronomical Twilight 5:33 AM +07 7:43 PM +07
Moon 2:36 PM +07 (1/22) 2:36 AM +07 (1/22)
Length of Visible Light 12h 28m
Length of Day
11h 43m
Waxing Gibbous, 79% of the Moon is Illuminated
Jan 22
Waxing Gibbous
Jan 27
Full
Feb 3
Last Quarter
Feb 10
New
Feb 18
First Quarter

Hourly Weather History & Observations

Time (+07) Temp. Heat Index Dew Point Humidity Pressure Visibility Wind Dir Wind Speed Gust Speed Precip Events Conditions
12:00 AM 78.8 °F - 75.2 °F 89% 29.95 in 3.7 mi SE 3.5 mph - N/A Rain Light Rain
12:30 AM 78.8 °F - 75.2 °F 89% 29.92 in 4.3 mi Calm Calm - N/A   Mostly Cloudy
1:00 AM 80 °F - 77 °F 89% 29.90 in 4 mi Calm Calm - - Rain Light Rain
1:00 AM 78.8 °F - 75.2 °F 89% 29.92 in 4.3 mi Calm Calm - N/A   Mostly Cloudy
1:30 AM 78.8 °F - 75.2 °F 89% 29.92 in 5.0 mi Calm Calm - N/A   Mostly Cloudy
2:00 AM 77.0 °F - 75.2 °F 94% 29.92 in 4.3 mi Calm Calm - N/A   Mostly Cloudy
2:30 AM 77.0 °F - 75.2 °F 94% 29.92 in 4.3 mi Calm Calm - N/A   Mostly Cloudy
3:00 AM 77.0 °F - 73.4 °F 89% 29.89 in 4.3 mi Calm Calm - N/A   Mostly Cloudy
3:30 AM 77.0 °F - 73.4 °F 89% 29.89 in 4.3 mi Calm Calm - N/A   Mostly Cloudy
4:00 AM 77.0 °F - 73.4 °F 89% 29.95 in 3.7 mi Calm Calm - N/A   Mostly Cloudy
4:30 AM 77.0 °F - 73.4 °F 89% 29.89 in 3.7 mi Calm Calm - N/A   Mostly Cloudy
5:30 AM 77.0 °F - 73.4 °F 89% 29.89 in 4.3 mi Calm Calm - N/A   Mostly Cloudy
6:00 AM 77.0 °F - 73.4 °F 89% 29.89 in 4.3 mi Calm Calm - N/A   Mostly Cloudy
6:30 AM 75.2 °F - 73.4 °F 94% 29.89 in 4.3 mi Calm Calm - N/A   Mostly Cloudy
7:00 AM 77 °F - 75 °F 93% 29.88 in 4 mi Calm Calm - -   Mist
7:00 AM 75.2 °F - 73.4 °F 94% 29.89 in 4.3 mi ESE 3.5 mph - N/A   Mostly Cloudy
7:30 AM 77.0 °F - 73.4 °F 89% 29.92 in 4.3 mi Calm Calm - N/A   Scattered Clouds
8:00 AM 80.6 °F 86.2 °F 75.2 °F 84% 29.92 in 4.3 mi ENE 5.8 mph - N/A   Scattered Clouds
8:30 AM 82.4 °F 88.2 °F 73.4 °F 74% 29.92 in 5.6 mi East 10.4 mph - N/A   Scattered Clouds
9:00 AM 82.4 °F 88.2 °F 73.4 °F 74% 29.95 in 6.2 mi East 15.0 mph - N/A   Scattered Clouds
9:30 AM 82.4 °F 87.2 °F 71.6 °F 70% 29.95 in 6.2 mi East 12.7 mph - N/A   Scattered Clouds
10:00 AM 84.2 °F 90.9 °F 73.4 °F 70% 29.95 in 6.2 mi ENE 13.8 mph - N/A   Scattered Clouds
10:30 AM 84.2 °F 90.9 °F 73.4 °F 70% 29.95 in 6.2 mi East 13.8 mph - N/A   Scattered Clouds
11:00 AM 86.0 °F 93.4 °F 73.4 °F 66% 29.95 in 6.2 mi East 13.8 mph - N/A   Scattered Clouds
11:30 AM 86.0 °F 91.8 °F 71.6 °F 62% 29.95 in 6.2 mi East 12.7 mph - N/A   Scattered Clouds
12:00 PM 86.0 °F 91.8 °F 71.6 °F 62% 29.92 in 6.2 mi East 13.8 mph - N/A   Scattered Clouds
12:30 PM 87.8 °F 95.6 °F 73.4 °F 62% 29.92 in 6.2 mi East 11.5 mph - N/A   Scattered Clouds
1:00 PM 88 °F - 72 °F 50% 29.88 in 6 mi East 9.2 mph - -   Scattered Clouds
1:00 PM 87.8 °F 93.8 °F 71.6 °F 58% 29.89 in 6.2 mi ESE 11.5 mph - N/A   Scattered Clouds
1:30 PM 89.6 °F 96.2 °F 71.6 °F 55% 29.86 in 6.2 mi East 11.5 mph - N/A   Scattered Clouds
2:00 PM 89.6 °F 98.2 °F 73.4 °F 59% 29.86 in 6.2 mi East 15.0 mph - N/A   Scattered Clouds
2:30 PM 84.2 °F 90.9 °F 73.4 °F 70% 29.83 in 5.0 mi East 8.1 mph - N/A Rain Light Rain
3:00 PM 89.6 °F 98.2 °F 73.4 °F 59% 29.80 in 6.2 mi East 15.0 mph - N/A   Scattered Clouds
3:30 PM 89.6 °F 96.2 °F 71.6 °F 55% 29.80 in 6.2 mi East 15.0 mph - N/A   Scattered Clouds
4:00 PM 89.6 °F 98.2 °F 73.4 °F 59% 29.80 in 6.2 mi East 11.5 mph - N/A   Scattered Clouds
4:30 PM 82.4 °F 88.2 °F 73.4 °F 74% 29.80 in 6.2 mi East 8.1 mph - N/A   Scattered Clouds
5:00 PM 84.2 °F 90.9 °F 73.4 °F 70% 29.83 in 6.2 mi ESE 9.2 mph - N/A   Scattered Clouds
5:30 PM 87.8 °F 93.8 °F 71.6 °F 58% 29.83 in 6.2 mi ESE 9.2 mph - N/A   Mostly Cloudy
6:30 PM 84.2 °F 90.9 °F 73.4 °F 70% 29.83 in 6.2 mi ESE 5.8 mph - N/A   Mostly Cloudy
7:00 PM 84 °F - 76 °F 72% 29.83 in 6 mi Calm Calm - -   Partly Cloudy
7:00 PM 84.2 °F 89.6 °F 71.6 °F 66% 29.83 in 6.2 mi ENE 10.4 mph - N/A   Mostly Cloudy
7:30 PM 84.2 °F 89.6 °F 71.6 °F 66% 29.86 in 6.2 mi East 5.8 mph - N/A   Scattered Clouds
8:00 PM 82.4 °F 87.2 °F 71.6 °F 70% 29.89 in 6.2 mi East 5.8 mph - N/A   Scattered Clouds
8:30 PM 84.2 °F 89.6 °F 71.6 °F 66% 29.89 in 5.6 mi East 5.8 mph - N/A   Scattered Clouds
9:00 PM 84.2 °F 88.4 °F 69.8 °F 62% 29.92 in 5.6 mi East 10.4 mph - N/A   Scattered Clouds
9:30 PM 84.2 °F 88.4 °F 69.8 °F 62% 29.92 in 5.6 mi ESE 6.9 mph - N/A   Scattered Clouds
10:00 PM 82.4 °F 86.3 °F 69.8 °F 66% 29.92 in 5.6 mi East 10.4 mph - N/A   Scattered Clouds
10:30 PM 82.4 °F 86.3 °F 69.8 °F 66% 29.92 in 5.6 mi East 8.1 mph - N/A   Scattered Clouds
11:00 PM 80.6 °F 83.9 °F 69.8 °F 70% 29.92 in 5.6 mi East 3.5 mph - N/A   Scattered Clouds
11:30 PM 78.8 °F - 69.8 °F 74% 29.92 in 5.6 mi Variable 2.3 mph - N/A   Scattered Clouds